Location: Gradaro
(45.0833°N, 10.8833°E)
Time: 10:16:54
(UTC+00:00)

Cosmos 1408 Rocket - Pass Details

Date: 29 November 2020
Orbit: 600 x 631 km, 82.6° (Epoch: 23 January)

Event Time Altitude Azimuth Distance (km) Brightness Sun altitude
Rises 04:55:29 0° 206° (SSW) 2,910 6.9 -16.7°
Reaches altitude 10° 04:57:49 10° 213° (SSW) 2,007 6.0 -16.3°
Maximum altitude 05:02:01 40° 284° (WNW) 926 3.9 -15.6°
Drops below altitude 10° 05:06:15 10° 355° (N) 2,014 6.0 -14.8°
Sets 05:08:37 0° 2° (N) 2,923 6.9 -14.4°
